www.protime.co.bw Contact Us

Botswana Life Classic Run 2018

Overall Finish List

October 07, 2018


Protime Sport BW - Powered By ACTIVE IPICO Greenburg (Pty) Ltd

Botswana Life Classic - 21.1km

Place Name Club / Team Bib No Gender Total Time
1 GODIRAONE NTHOMPE 763 M 1:08:10.2
2 SESEBO MATLAPENG 762 M 1:08:10.5
3 THOLEGO KEITSHEKILE 770 M 1:10:03.0
4 DIKGAKGAMATSO MODISAGAPE 659 M 1:11:54.2
5 JULIUS MONYEKI 640 M 1:12:13.1
6 BATUNGAMILI ZIBANI GABORONE STRIDERS 723 M 1:17:38.4
7 THAMI SABATA CONTEMPORARY LINEN 608 M 1:18:17.6
8 SECHELE SECHELE GABORONE STRIDERS 739 M 1:19:40.2
9 CEDRIC KETSHABILE CONTEMPORARY LINEN 605 M 1:28:36.0
10 MOTSAMAI BONANG GABORONE STRIDERS 736 M 1:29:27.0
11 SEELETSO MOEPENG 601 M 1:29:48.2
12 MMONYEMANG MASILO 769 F 1:29:54.4
13 MORAKI MOKGOSANA 703 M 1:35:33.0
14 SUNDAY KAMBOLE GABORONE STRIDERS 727 M 1:43:37.2
15 REBAONE MMEREKI GABORONE STRIDERS 730 M 1:44:38.4
16 OAITSE GANELANG HRDC 676 M 1:45:00.9
17 OMPHILE CALVIN MOLEBATSI GABORONE STRIDERS 746 M 1:45:01.2
18 MOOKETSI PULE GABORONE STRIDERS 718 M 1:45:51.3
19 PHILIP MASSEY 639 M 1:46:28.7
20 KABO MODIMOOTSILE GABORONE STRIDERS 712 M 1:49:12.2
21 PHATSIMO MOIKABI GABORONE STRIDERS 711 F 1:49:12.2
22 ZULEIKHA S STEINBACH GABORONE STRIDERS 721 F 1:51:20.8
23 JOEL FAGIN PETER 752 M 1:51:32.2
24 MERCY MOGOTSI GABORONE STRIDERS 724 F 1:51:43.7
25 VICTOR MLAZI RUN WID IT 690 M 1:52:06.9
26 PELE MOLETA GABORONE STRIDERS 720 M 1:52:35.1
27 TREVOR MATLAKALA BIFM 615 M 1:52:48.2
28 EMMANUEL KGANTUMO GABORONE STRIDERS 726 M 1:52:48.8
29 GAPE MACHAO 647 M 1:53:08.5
30 BOIKANYO MOGAMI GABORONE STRIDERS 709 M 1:53:48.8
31 MODISE KOOFHETHILE BIFM 611 M 1:54:19.3
32 RAJNISH MALASI GABORONE STRIDERS 716 M 1:56:40.8
33 LEANARD CHARLES 761 M 1:56:55.3
34 BATSWANA BASIMOLODI 759 M 1:57:20.0
35 TLHALEFO RAMAOLOGA GABORONE STRIDERS 731 M 1:57:37.4
36 TSHOGANETSO TER TAMASIGA 603 M 1:57:45.0
37 KEAMOGETSE MAJAPELO GABORONE STRIDERS 748 M 1:58:34.4
38 GALEBOI SENNANYANA 604 F 1:59:04.0
39 WAME NTWAYAKGOSI GABORONE STRIDERS 737 F 1:59:49.1
40 LESEGO NTEBELA BLIL 617 F 1:59:52.2
41 LETLHOGONOLO RAMOGALANA CONTEMPORARY LINEN 607 M 2:00:38.0
42 TSHEPO O MOTSEMME BLIL 623 M 2:01:27.1
43 KARABO SEGAETSHO HRDC 674 M 2:01:33.8
44 YAGAN MUKONDE 650 M 2:02:01.0
45 MPHO MOGASHA 658 M 2:02:37.8
46 BENJAMIN SEBONEGO GABORONE STRIDERS 741 M 2:03:24.6
47 OLERATO MOTSU GABORONE STRIDERS 738 F 2:04:15.0
48 KEFILWE A KALAYAKGOSI HRDC 675 M 2:04:32.1
49 AI HOMMA 645 F 2:06:06.2
50 TAKUYA ANDO 642 M 2:06:06.2
51 ARNOLD MOKGADI ALEXANDER FORBES 631 M 2:06:51.8
52 MICHAEL KNOTT GABORONE STRIDERS 722 M 2:06:56.4
53 MATSHIDISO PULE GABORONE STRIDERS 733 F 2:06:57.3
54 BATHUSI MAKOPO 704 M 2:07:25.8
55 BOBBY SEBEO 767 M 2:08:06.6
56 KENNEDY LECAGE BANC ABC 686 M 2:08:07.7
57 BANYANA MADI-SEGWAGWE GABORONE STRIDERS 745 F 2:08:11.2
58 KHUMOETSILE RAKGOMO 656 F 2:09:01.4
59 ODIRILE KAETWA 655 M 2:09:05.0
60 MPAPHI KENOSI GABORONE STRIDERS 710 M 2:09:05.2
61 CHAHA NTHOI RUN WID IT 691 F 2:09:05.2
62 DOBIE RANKALA 756 M 2:09:06.1
63 GOVERN MASEBA BLIL 618 M 2:09:06.3
64 THAPELO KALAKE RUN WID IT 692 M 2:09:08.4
65 NEVILLE ROYSTON GABORONE STRIDERS 728 M 2:10:17.9
66 TSHIKANYANE SESINYI 634 M 2:10:18.0
67 LAMPI SETLABOSIGO GPH 695 M 2:11:03.8
68 LESEGO SETLHAKO 764 M 2:11:52.1
69 TLAMELO MOTHOBI BANC ABC 683 M 2:11:52.8
70 LEEPILE MOLATEDI 666 M 2:12:02.8
71 FORTUNE TAKAINDISA BANC ABC 687 M 2:12:43.7
72 LESANG SELLO BIC 750 M 2:12:51.6
73 MOGAMETSI PIE 646 F 2:13:09.0
74 JWAONE TSELAYAKHUMO 662 M 2:14:04.7
75 NOZIPHO WRIGHT 643 F 2:14:11.9
76 MOKWENA MORULANE 768 M 2:14:17.3
77 TIRAFALO OTLHOGILE BLIL 619 M 2:14:32.1
78 EMMANUEL KEPARURA BLIL 621 M 2:14:32.3
79 ITAI MAUNGA BANC ABC 685 M 2:14:35.4
80 KUDAKUSHE MUKUSHI BIHL 671 M 2:15:15.3
81 KGOSIETSILE PUOENG BANC ABC 680 M 2:16:28.7
82 PANDULENI ELAGO 652 F 2:16:37.2
83 TABOKA MUKE BIFM 612 F 2:16:56.9
84 BATSALELWANG TLADI HRDC 673 F 2:18:27.2
85 ONKABETSE A MMEREKI HRDC 677 M 2:18:27.4
86 PEPE MOSINYI RUN WID IT 701 M 2:20:04.9
87 KEFILWE MAFELA GABORONE STRIDERS 714 F 2:20:46.4
88 KARABO HAMU 657 F 2:21:19.4
89 GOITSEONE TSHIAMO 651 F 2:21:19.7
90 TUMI SETLHAKE 753 F 2:23:06.7
91 NONOFO SEFHEMO 707 F 2:23:06.8
92 OFENTSE KGAOGANO GET BUCKS 625 M 2:23:59.7
93 GAOGAKWE MOKOBI 641 M 2:25:43.9
94 MOLEBEDI SEGWAGWE GABORONE STRIDERS 744 M 2:26:10.9
95 KALEBA RAKWADI 754 M 2:27:33.4
96 KELETSO GAREEBINE GABORONE STRIDERS 742 F 2:28:06.7
97 BAOLOPI SEGOTLONG GPH 693 M 2:28:06.9
98 MALEBOGO CHARLES 760 F 2:29:00.5
99 GUSTAV SETSHEDI 654 M 2:29:01.5
100 THERO MOROKA 653 M 2:29:37.1
 
Place Name Club / Team Bib No Gender Total Time
101 GALEBOE MMELESI GABORONE STRIDERS 732 M 2:29:37.2
102 LEBANG G BALESENG GABORONE STRIDERS 717 F 2:29:37.3
103 THOMAS BAEPI MOIPOLAI BIC 751 M 2:29:37.7
104 PHATSIMO LAETSANG GABORONE STRIDERS 740 M 2:29:37.9
105 MALEBOGO ABOTSENG 635 F 2:29:52.4
106 TONIC K. TESE BLIL 620 M 2:30:56.9
107 BONANG KWAPE GABORONE STRIDERS 713 F 2:31:26.5
108 JOHN MONTSHO 668 M 2:31:46.7
109 KABO KGENGWENYANE BLIL 622 M 2:31:56.2
110 ALDRIN MOAHI BANC ABC 682 M 2:32:38.1
111 OTHUSITSE  EDWARD 602 M 2:34:04.1
112 LEATILE BAKWENA GABORONE STRIDERS 729 M 2:34:54.2
113 TAPIWA MASUNGA 638 F 2:35:12.5
114 KHUMO KETSHABILE ALEXANDER FORBES 628 F 2:35:54.9
115 QUETT S MMOPELE 669 M 2:36:31.3
116 ATLANG MOMPE 636 F 2:37:39.0
117 OTSILE NTENEGI 755 M 2:38:46.9
118 DINTLELO ABBY ALEXANDER FORBES 629 F 2:38:47.0
119 CAROL RATANG KGAFELA 663 F 2:40:25.5
120 TUDUETSO MADI GABORONE STRIDERS 708 F 2:41:12.5
121 REFILWE BOWE GABORONE STRIDERS 743 F 2:41:13.7
122 DISANG SIANGA BANC ABC 684 M 2:41:29.4
123 CHEDU SESINYI 633 F 2:41:48.3
124 GORATA RAMASUSWANA BLIL 624 F 2:42:53.6
125 MAHUBE MPUGWA BIFM 610 M 2:43:31.4
126 SAADIA ROSSENKHAN 644 F 2:43:46.4
127 OARABILE CHABA 705 M 2:44:31.9
128 THABISO MAJATSIE HRDC 679 M 2:48:20.1
129 LECHEDZANI KENOSI BIC 749 M 2:48:24.5
130 MARTIN MAKWINJA 757 M 2:48:27.0
131 BABAKISI MOTSAMAI 665 M 2:48:27.3
132 KUTLO TANGANE 661 F 2:50:05.1
133 RURI KOPI BANC ABC 681 M 2:52:42.8
134 TSAONE MONTSHO 667 F 2:53:25.1
135 ALFRED KATLEGO NTWAAGAE GET BUCKS 626 M 2:53:38.4
136 NDIYE NLANDA 664 M 2:53:38.6
137 MOATHUDI OLEBILE GET BUCKS 627 M 2:53:39.8
138 KGAOFELO G PHUDUHUTSWANA 637 M 2:55:02.7
139 SEGAMETSI SETSHANTSHO BANC ABC 688 F 3:09:47.6
140 BALATEDI MAKOSHA BIFM 609 M 3:09:48.0